• In United Kingdom
  • List of Countries
  • For 7 days
  • Water Temperature
  • Satellite Maps
  • Weather Map
  • Weather Widgets
  • user-avatar
    Login

    Hourly Weather Cyklady

    Today, 22 September, Friday

    Time Temperature Precipitation Wind Pressure Humidity
    00:00 +11°C° 0 mm 3 mps 685 mmHg 83%
    01:00 +10°C° 0 mm 3 mps 684 mmHg 84%
    02:00 +10°C° 0 mm 3 mps 684 mmHg 85%
    03:00 +10°C° 0 mm 3 mps 685 mmHg 86%
    04:00 +9°C° 0 mm 3 mps 685 mmHg 86%
    05:00 +11°C° 0 mm 3 mps 685 mmHg 81%
    06:00 +12°C° 0 mm 3 mps 685 mmHg 75%
    07:00 +13°C° 0 mm 3 mps 686 mmHg 67%
    08:00 +15°C° 0 mm 4 mps 686 mmHg 58%
    09:00 +17°C° 0 mm 4 mps 686 mmHg 49%
    10:00 +19°C° 0 mm 4 mps 687 mmHg 40%
    11:00 +19°C° 0 mm 4 mps 687 mmHg 39%
    12:00 +20°C° 0 mm 5 mps 687 mmHg 38%
    13:00 +20°C° 0 mm 5 mps 687 mmHg 39%
    14:00 +20°C° 0 mm 5 mps 687 mmHg 41%
    15:00 +19°C° 0 mm 5 mps 686 mmHg 42%
    16:00 +19°C° 0 mm 5 mps 686 mmHg 44%
    17:00 +16°C° 0 mm 5 mps 686 mmHg 51%
    18:00 +15°C° 0 mm 4 mps 686 mmHg 57%
    19:00 +13°C° 0 mm 4 mps 686 mmHg 63%
    20:00 +12°C° 0 mm 3 mps 686 mmHg 66%
    21:00 +12°C° 0 mm 3 mps 686 mmHg 68%
    22:00 +11°C° 0 mm 3 mps 686 mmHg 71%
    23:00 +11°C° 0 mm 3 mps 686 mmHg 72%

    Tomorrow, 23 September, Saturday

    Time Temperature Precipitation Wind Pressure Humidity
    00:00 +11°C° 0 mm 3 mps 686 mmHg 73%
    01:00 +10°C° 0 mm 3 mps 686 mmHg 75%
    02:00 +10°C° 0 mm 3 mps 686 mmHg 75%
    03:00 +10°C° 0 mm 2 mps 686 mmHg 76%
    04:00 +10°C° 0 mm 2 mps 686 mmHg 77%
    05:00 +12°C° 0 mm 2 mps 686 mmHg 71%
    06:00 +13°C° 0 mm 2 mps 687 mmHg 65%
    07:00 +14°C° 0 mm 2 mps 687 mmHg 59%
    08:00 +17°C° 0 mm 2 mps 688 mmHg 51%
    09:00 +19°C° 0 mm 2 mps 688 mmHg 43%
    10:00 +21°C° 0 mm 2 mps 689 mmHg 35%
    11:00 +21°C° 0 mm 2 mps 689 mmHg 33%
    12:00 +22°C° 0 mm 3 mps 689 mmHg 31%
    13:00 +22°C° 0 mm 3 mps 689 mmHg 29%
    14:00 +22°C° 0 mm 3 mps 688 mmHg 31%
    15:00 +21°C° 0 mm 3 mps 688 mmHg 34%
    16:00 +20°C° 0 mm 3 mps 688 mmHg 37%
    17:00 +19°C° 0 mm 3 mps 687 mmHg 44%
    18:00 +17°C° 0 mm 3 mps 687 mmHg 51%
    19:00 +15°C° 0 mm 2 mps 687 mmHg 58%
    20:00 +14°C° 0 mm 2 mps 687 mmHg 61%
    21:00 +14°C° 0 mm 2 mps 687 mmHg 64%
    22:00 +14°C° 0 mm 1 mps 687 mmHg 66%
    23:00 +13°C° 0 mm 1 mps 687 mmHg 68%

    Day after tomorrow, 24 September, Sunday

    Time Temperature Precipitation Wind Pressure Humidity
    00:00 +13°C° 0 mm 1 mps 687 mmHg 69%
    01:00 +13°C° 0 mm 1 mps 687 mmHg 70%
    02:00 +12°C° 0 mm 1 mps 686 mmHg 71%
    03:00 +12°C° 0 mm 1 mps 686 mmHg 71%
    04:00 +12°C° 0 mm 1 mps 686 mmHg 71%
    05:00 +13°C° 0 mm 1 mps 686 mmHg 67%
    06:00 +14°C° 0 mm 1 mps 686 mmHg 63%
    07:00 +16°C° 0 mm 1 mps 687 mmHg 58%
    08:00 +19°C° 0 mm 1 mps 687 mmHg 51%
    09:00 +21°C° 0 mm 1 mps 688 mmHg 45%
    10:00 +23°C° 0 mm 1 mps 688 mmHg 38%
    11:00 +23°C° 0 mm 2 mps 688 mmHg 36%
    12:00 +24°C° 0 mm 2 mps 688 mmHg 34%
    13:00 +24°C° 0 mm 2 mps 687 mmHg 32%
    14:00 +23°C° 0 mm 2 mps 687 mmHg 35%
    15:00 +23°C° 0 mm 2 mps 687 mmHg 38%
    16:00 +21°C° 0 mm 3 mps 687 mmHg 41%
    17:00 +19°C° 0 mm 2 mps 686 mmHg 48%
    18:00 +18°C° 0 mm 2 mps 686 mmHg 55%
    19:00 +16°C° 0 mm 1 mps 686 mmHg 62%
    20:00 +15°C° 0 mm 1 mps 686 mmHg 64%
    21:00 +15°C° 0 mm 1 mps 686 mmHg 66%
    22:00 +14°C° 0 mm 1 mps 686 mmHg 67%
    23:00 +14°C° 0 mm 1 mps 686 mmHg 68%

    25 September, Monday

    Time Temperature Precipitation Wind Pressure Humidity
    00:00 +14°C° 0 mm 1 mps 685 mmHg 69%
    01:00 +14°C° 0 mm 1 mps 685 mmHg 69%
    02:00 +14°C° 0 mm 1 mps 685 mmHg 69%
    03:00 +13°C° 0 mm 1 mps 685 mmHg 69%
    04:00 +13°C° 0 mm 1 mps 685 mmHg 69%
    05:00 +14°C° 0 mm 1 mps 685 mmHg 66%
    06:00 +15°C° 0 mm 1 mps 685 mmHg 62%
    07:00 +16°C° 0 mm 1 mps 685 mmHg 58%
    08:00 +19°C° 0 mm 1 mps 686 mmHg 52%
    09:00 +21°C° 0 mm 1 mps 686 mmHg 45%
    10:00 +23°C° 0 mm 2 mps 686 mmHg 38%
    11:00 +23°C° 0 mm 2 mps 686 mmHg 39%
    12:00 +23°C° 0 mm 2 mps 686 mmHg 39%
    13:00 +23°C° 0 mm 2 mps 686 mmHg 40%
    14:00 +21°C° 0.1 mm 2 mps 686 mmHg 43%
    15:00 +20°C° 0.1 mm 2 mps 685 mmHg 47%
    16:00 +19°C° 0.1 mm 2 mps 685 mmHg 51%
    17:00 +19°C° 0 mm 1 mps 685 mmHg 57%
    18:00 +18°C° 0 mm 1 mps 685 mmHg 63%
    19:00 +16°C° 0 mm 1 mps 685 mmHg 69%
    20:00 +15°C° 0 mm 1 mps 685 mmHg 71%
    21:00 +15°C° 0 mm 1 mps 685 mmHg 74%
    22:00 +14°C° 0 mm 1 mps 685 mmHg 76%
    23:00 +14°C° 0 mm 1 mps 684 mmHg 78%

    26 September, Tuesday

    Time Temperature Precipitation Wind Pressure Humidity
    00:00 +13°C° 0 mm 1 mps 684 mmHg 79%
    01:00 +13°C° 0 mm 1 mps 684 mmHg 80%
    02:00 +13°C° 0 mm 1 mps 684 mmHg 81%
    03:00 +13°C° 0 mm 1 mps 684 mmHg 81%
    04:00 +13°C° 0 mm 1 mps 684 mmHg 82%
    05:00 +14°C° 0 mm 1 mps 684 mmHg 77%
    06:00 +15°C° 0 mm 1 mps 684 mmHg 73%
    07:00 +16°C° 0 mm 1 mps 685 mmHg 68%
    08:00 +19°C° 0 mm 1 mps 685 mmHg 60%
    09:00 +21°C° 0 mm 1 mps 686 mmHg 52%
    10:00 +23°C° 0 mm 1 mps 686 mmHg 44%
    11:00 +23°C° 0 mm 2 mps 686 mmHg 44%
    12:00 +23°C° 0 mm 2 mps 686 mmHg 45%
    13:00 +22°C° 0 mm 3 mps 685 mmHg 45%
    14:00 +21°C° 0.1 mm 2 mps 685 mmHg 49%
    15:00 +20°C° 0.1 mm 2 mps 685 mmHg 53%
    16:00 +20°C° 0.1 mm 2 mps 685 mmHg 58%
    17:00 +19°C° 0.1 mm 1 mps 685 mmHg 64%
    18:00 +18°C° 0.1 mm 1 mps 685 mmHg 71%
    19:00 +16°C° 0.1 mm 1 mps 685 mmHg 78%
    20:00 +15°C° 0 mm 1 mps 685 mmHg 79%
    21:00 +15°C° 0 mm 1 mps 685 mmHg 81%
    22:00 +13°C° 0 mm 0 mps 685 mmHg 82%
    23:00 +14°C° 0 mm 1 mps 685 mmHg 82%

    27 September, Wednesday

    Time Temperature Precipitation Wind Pressure Humidity
    00:00 +14°C° 0 mm 1 mps 685 mmHg 82%
    01:00 +14°C° 0 mm 1 mps 685 mmHg 83%
    02:00 +13°C° 0 mm 1 mps 685 mmHg 83%
    03:00 +13°C° 0 mm 1 mps 685 mmHg 83%
    04:00 +13°C° 0 mm 1 mps 685 mmHg 82%
    05:00 +14°C° 0 mm 1 mps 685 mmHg 77%
    06:00 +15°C° 0 mm 1 mps 686 mmHg 72%
    07:00 +16°C° 0 mm 1 mps 686 mmHg 67%
    08:00 +19°C° 0 mm 1 mps 687 mmHg 59%
    09:00 +21°C° 0 mm 1 mps 687 mmHg 51%
    10:00 +23°C° 0 mm 1 mps 688 mmHg 43%
    11:00 +23°C° 0 mm 2 mps 688 mmHg 42%
    12:00 +24°C° 0 mm 2 mps 687 mmHg 41%
    13:00 +24°C° 0 mm 3 mps 687 mmHg 40%
    14:00 +22°C° 0.1 mm 3 mps 687 mmHg 44%
    15:00 +21°C° 0.1 mm 3 mps 687 mmHg 49%
    16:00 +20°C° 0.1 mm 2 mps 687 mmHg 53%
    17:00 +19°C° 0.1 mm 2 mps 687 mmHg 60%
    18:00 +17°C° 0.1 mm 2 mps 687 mmHg 67%
    19:00 +16°C° 0.1 mm 1 mps 687 mmHg 74%
    20:00 +16°C° 0.1 mm 1 mps 687 mmHg 75%
    21:00 +15°C° 0.1 mm 1 mps 687 mmHg 77%
    22:00 +15°C° 0.1 mm 1 mps 687 mmHg 78%
    23:00 +14°C° 0 mm 1 mps 687 mmHg 78%
    Show more